When you browse on this site, cookies collect data to enhance your experience and personalize the content and advertising you see.
Visit our Privacy Policy to learn more. By continuing to use the site, you agree to this use of cookies and data.
  • In Hungary
  • List of Countries
  • For 7 days
  • Water Temperature
  • Satellite Maps
  • Weather Map
  • News
  • Weather Widgets
  • user-avatar
    Login

    Hourly Weather Vechrik

    Today, 20 November, Tuesday

    Time Temperature Precipitation Wind Pressure Humidity
    00:00 +1°C° 0 mm 3 mps 679 mmHg 54%
    01:00 +2°C° 0 mm 3 mps 678 mmHg 53%
    02:00 +2°C° 0 mm 3 mps 678 mmHg 51%
    03:00 +2°C° 0 mm 3 mps 678 mmHg 50%
    04:00 +2°C° 0 mm 3 mps 677 mmHg 49%
    05:00 +2°C° 0 mm 3 mps 677 mmHg 49%
    06:00 +3°C° 0 mm 3 mps 677 mmHg 49%
    07:00 +4°C° 0 mm 3 mps 677 mmHg 47%
    08:00 +7°C° 0 mm 2 mps 677 mmHg 45%
    09:00 +8°C° 0 mm 2 mps 677 mmHg 44%
    10:00 +9°C° 0 mm 2 mps 676 mmHg 44%
    11:00 +10°C° 0 mm 2 mps 676 mmHg 44%
    12:00 +12°C° 0 mm 1 mps 675 mmHg 45%
    13:00 +12°C° 0 mm 1 mps 675 mmHg 48%
    14:00 +12°C° 0 mm 1 mps 675 mmHg 52%
    15:00 +12°C° 0 mm 1 mps 674 mmHg 56%
    16:00 +9°C° 0 mm 2 mps 674 mmHg 60%
    17:00 +8°C° 0 mm 3 mps 674 mmHg 65%
    18:00 +7°C° 0 mm 3 mps 674 mmHg 69%
    19:00 +7°C° 0 mm 3 mps 674 mmHg 67%
    20:00 +7°C° 0 mm 3 mps 673 mmHg 65%
    21:00 +7°C° 0 mm 3 mps 673 mmHg 63%
    22:00 +7°C° 0 mm 3 mps 673 mmHg 63%
    23:00 +7°C° 0 mm 3 mps 673 mmHg 62%

    Tomorrow, 21 November, Wednesday

    Time Temperature Precipitation Wind Pressure Humidity
    00:00 +7°C° 0 mm 3 mps 673 mmHg 62%
    01:00 +5°C° 0 mm 3 mps 673 mmHg 66%
    02:00 +4°C° 0 mm 3 mps 673 mmHg 70%
    03:00 +4°C° 0 mm 4 mps 673 mmHg 74%
    04:00 +4°C° 0.7 mm 3 mps 673 mmHg 78%
    05:00 +3°C° 0.7 mm 3 mps 673 mmHg 81%
    06:00 +3°C° 0.7 mm 3 mps 673 mmHg 85%
    07:00 +4°C° 0.2 mm 3 mps 674 mmHg 81%
    08:00 +4°C° 0.2 mm 3 mps 674 mmHg 77%
    09:00 +5°C° 0.2 mm 3 mps 674 mmHg 74%
    10:00 +7°C° 0 mm 3 mps 674 mmHg 72%
    11:00 +7°C° 0 mm 3 mps 674 mmHg 70%
    12:00 +7°C° 0 mm 4 mps 674 mmHg 68%
    13:00 +6°C° 0 mm 4 mps 674 mmHg 71%
    14:00 +6°C° 0 mm 4 mps 674 mmHg 74%
    15:00 +5°C° 0 mm 4 mps 674 mmHg 78%
    16:00 +5°C° 0 mm 3 mps 674 mmHg 81%
    17:00 +4°C° 0 mm 3 mps 674 mmHg 85%
    18:00 +3°C° 0 mm 3 mps 674 mmHg 89%
    19:00 +3°C° 0 mm 3 mps 674 mmHg 88%
    20:00 +4°C° 0 mm 2 mps 674 mmHg 88%
    21:00 +3°C° 0 mm 2 mps 674 mmHg 88%
    22:00 +3°C° 0 mm 2 mps 674 mmHg 88%
    23:00 +3°C° 0 mm 2 mps 673 mmHg 88%

    Day after tomorrow, 22 November, Thursday

    Time Temperature Precipitation Wind Pressure Humidity
    00:00 +3°C° 0 mm 2 mps 673 mmHg 88%
    01:00 +3°C° 0 mm 2 mps 673 mmHg 89%
    02:00 +4°C° 0 mm 1 mps 673 mmHg 89%
    03:00 +4°C° 0 mm 1 mps 673 mmHg 89%
    04:00 +4°C° 0 mm 1 mps 673 mmHg 89%
    05:00 +4°C° 0 mm 1 mps 673 mmHg 90%
    06:00 +3°C° 0 mm 2 mps 672 mmHg 90%
    07:00 +3°C° 0.1 mm 2 mps 673 mmHg 88%
    08:00 +4°C° 0.1 mm 2 mps 673 mmHg 86%
    09:00 +4°C° 0.1 mm 2 mps 673 mmHg 84%
    10:00 +4°C° 0 mm 2 mps 673 mmHg 83%
    11:00 +5°C° 0 mm 2 mps 673 mmHg 82%
    12:00 +5°C° 0 mm 2 mps 673 mmHg 81%
    13:00 +5°C° 0 mm 2 mps 673 mmHg 83%
    14:00 +5°C° 0 mm 2 mps 673 mmHg 84%
    15:00 +5°C° 0 mm 2 mps 672 mmHg 85%
    16:00 +4°C° 0 mm 2 mps 673 mmHg 87%
    17:00 +4°C° 0 mm 2 mps 673 mmHg 89%
    18:00 +3°C° 0 mm 2 mps 673 mmHg 90%
    19:00 +3°C° 0 mm 2 mps 673 mmHg 90%
    20:00 +4°C° 0 mm 1 mps 673 mmHg 89%
    21:00 +4°C° 0 mm 1 mps 673 mmHg 89%
    22:00 +4°C° 0 mm 1 mps 673 mmHg 89%
    23:00 +4°C° 0 mm 1 mps 673 mmHg 88%

    23 November, Friday

    Time Temperature Precipitation Wind Pressure Humidity
    00:00 +4°C° 0 mm 1 mps 673 mmHg 88%
    01:00 +4°C° 0 mm 1 mps 673 mmHg 88%
    02:00 +3°C° 0 mm 2 mps 673 mmHg 87%
    03:00 +2°C° 0 mm 2 mps 673 mmHg 86%
    04:00 +2°C° 0 mm 2 mps 673 mmHg 86%
    05:00 +3°C° 0 mm 1 mps 673 mmHg 86%
    06:00 +3°C° 0 mm 1 mps 673 mmHg 85%
    07:00 +3°C° 0 mm 2 mps 673 mmHg 83%
    08:00 +4°C° 0 mm 2 mps 674 mmHg 81%
    09:00 +4°C° 0 mm 2 mps 674 mmHg 78%
    10:00 +5°C° 0 mm 2 mps 674 mmHg 78%
    11:00 +5°C° 0 mm 2 mps 674 mmHg 78%
    12:00 +4°C° 0 mm 3 mps 674 mmHg 78%
    13:00 +4°C° 0.1 mm 3 mps 674 mmHg 80%
    14:00 +4°C° 0.1 mm 3 mps 674 mmHg 83%
    15:00 +3°C° 0.1 mm 3 mps 675 mmHg 85%
    16:00 +3°C° 0.2 mm 3 mps 675 mmHg 87%
    17:00 +2°C° 0.2 mm 3 mps 676 mmHg 89%
    18:00 +1°C° 0.2 mm 3 mps 677 mmHg 91%
    19:00 0°C° 0.3 mm 4 mps 677 mmHg 90%
    20:00 0°C° 0.3 mm 4 mps 678 mmHg 89%
    21:00 -1°C° 0.3 mm 4 mps 679 mmHg 88%
    22:00 -1°C° 0.1 mm 4 mps 679 mmHg 87%
    23:00 -1°C° 0.1 mm 4 mps 680 mmHg 86%

    24 November, Saturday

    Time Temperature Precipitation Wind Pressure Humidity
    00:00 -2°C° 0.1 mm 4 mps 680 mmHg 86%
    01:00 -1°C° 0 mm 3 mps 680 mmHg 86%
    02:00 -2°C° 0 mm 3 mps 681 mmHg 86%
    03:00 -2°C° 0 mm 2 mps 681 mmHg 87%
    04:00 -2°C° 0 mm 2 mps 681 mmHg 87%
    05:00 -2°C° 0 mm 2 mps 682 mmHg 87%
    06:00 -2°C° 0 mm 2 mps 682 mmHg 87%
    07:00 -1°C° 0 mm 2 mps 683 mmHg 83%
    08:00 -1°C° 0 mm 2 mps 683 mmHg 80%
    09:00 +1°C° 0 mm 2 mps 684 mmHg 77%
    10:00 +1°C° 0 mm 3 mps 684 mmHg 74%
    11:00 +2°C° 0 mm 3 mps 684 mmHg 72%
    12:00 +3°C° 0 mm 4 mps 684 mmHg 70%
    13:00 +3°C° 0 mm 4 mps 683 mmHg 71%
    14:00 +3°C° 0 mm 4 mps 683 mmHg 72%
    15:00 +3°C° 0 mm 4 mps 683 mmHg 73%
    16:00 +1°C° 0 mm 4 mps 683 mmHg 75%
    17:00 +1°C° 0 mm 4 mps 682 mmHg 77%
    18:00 0°C° 0 mm 4 mps 682 mmHg 78%
    19:00 0°C° 0 mm 4 mps 682 mmHg 77%
    20:00 0°C° 0 mm 4 mps 682 mmHg 75%
    21:00 +1°C° 0 mm 3 mps 681 mmHg 73%
    22:00 +1°C° 0 mm 3 mps 681 mmHg 71%
    23:00 +1°C° 0 mm 3 mps 680 mmHg 70%

    25 November, Sunday

    Time Temperature Precipitation Wind Pressure Humidity
    00:00 +2°C° 0 mm 3 mps 680 mmHg 68%
    01:00 +2°C° 0 mm 3 mps 679 mmHg 66%
    02:00 +3°C° 0 mm 2 mps 679 mmHg 63%
    03:00 +3°C° 0 mm 2 mps 678 mmHg 61%
    04:00 +3°C° 0 mm 2 mps 678 mmHg 59%
    05:00 +3°C° 0 mm 2 mps 678 mmHg 57%
    06:00 +3°C° 0 mm 2 mps 677 mmHg 55%
    07:00 +4°C° 0 mm 2 mps 677 mmHg 53%
    08:00 +6°C° 0 mm 2 mps 677 mmHg 50%
    09:00 +7°C° 0 mm 2 mps 677 mmHg 47%
    10:00 +8°C° 0 mm 2 mps 677 mmHg 47%
    11:00 +8°C° 0 mm 2 mps 676 mmHg 48%
    12:00 +9°C° 0 mm 2 mps 676 mmHg 48%
    13:00 +8°C° 0 mm 2 mps 676 mmHg 53%
    14:00 +8°C° 0 mm 2 mps 675 mmHg 58%
    15:00 +7°C° 0 mm 2 mps 675 mmHg 63%
    16:00 +6°C° 0 mm 2 mps 675 mmHg 67%
    17:00 +5°C° 0 mm 2 mps 675 mmHg 70%
    18:00 +5°C° 0 mm 1 mps 675 mmHg 73%
    19:00 +5°C° 0 mm 1 mps 675 mmHg 72%
    20:00 +5°C° 0 mm 1 mps 675 mmHg 71%
    21:00 +5°C° 0 mm 1 mps 675 mmHg 70%
    22:00 +5°C° 0 mm 1 mps 675 mmHg 69%
    23:00 +5°C° 0 mm 1 mps 675 mmHg 69%
    Show more